Location: Unspecified
(0.0000°N, 0.0000°E)
Time: 11:38:18
(UTC+00:00)

SRMSAT - Visible Passes

Search period start: 19 January 2018 00:00
Search period end: 29 January 2018 00:00
Orbit: 849 x 866 km, 20.0° (Epoch: 18 January)

Date Brightness Start Highest point End Pass type
(mag) Time Alt. Az. Time Alt. Az. Time Alt. Az.
19 Jan ? 05:14:26 10° SSW 05:16:24 12° S 05:18:22 10° SSE visible
19 Jan ? 19:49:12 10° NW 19:54:12 36° N 19:54:12 36° N visible
20 Jan ? 05:01:13 10° SSW 05:03:37 12° S 05:06:01 10° SSE visible
20 Jan ? 19:36:09 10° NW 19:41:48 42° NNE 19:42:40 39° NE visible
21 Jan ? 04:48:03 10° SSW 04:50:50 13° S 04:53:38 10° SE visible
21 Jan ? 19:23:08 10° NW 19:28:54 48° NNE 19:31:10 32° ENE visible
21 Jan ? 21:12:12 10° WNW 21:13:13 15° W 21:13:13 15° W visible
22 Jan ? 04:34:52 10° SSW 04:38:03 15° SSE 04:41:12 10° SE visible
22 Jan ? 19:10:07 10° NW 19:15:59 55° NNE 19:19:44 22° E visible
22 Jan ? 20:59:21 10° W 21:01:46 24° W 21:01:46 24° W visible
23 Jan ? 04:21:43 10° SSW 04:25:14 16° SSE 04:28:44 10° SE visible
23 Jan ? 18:57:08 10° WNW 19:03:04 63° NNE 19:08:18 14° E visible
23 Jan ? 20:46:32 10° W 20:50:22 35° WSW 20:50:22 35° WSW visible
24 Jan ? 04:08:48 11° SSW 04:12:25 17° SSE 04:16:15 10° SE visible
24 Jan ? 18:44:10 10° WNW 18:50:09 72° NNE 18:56:09 10° ESE visible
24 Jan ? 20:33:45 10° W 20:38:56 41° SSW 20:38:56 41° SSW visible
25 Jan ? 03:57:11 15° SSW 03:59:36 19° SSE 04:03:43 10° ESE visible
25 Jan ? 05:43:27 10° SW 05:49:06 46° SSE 05:54:45 10° E visible
25 Jan ? 18:31:12 10° WNW 18:37:14 82° NNE 18:43:16 10° ESE visible
25 Jan ? 20:21:00 10° W 20:26:30 37° SSW 20:27:29 35° S visible
26 Jan ? 03:45:38 20° S 03:46:45 21° SSE 03:51:10 10° ESE visible
26 Jan ? 05:30:26 10° SW 05:36:12 52° SSE 05:41:57 10° E visible
26 Jan ? 20:08:16 10° W 20:13:37 33° SSW 20:16:00 24° SSE visible
27 Jan ? 03:34:10 24° SSE 03:34:10 24° SSE 03:38:35 10° ESE visible
27 Jan ? 05:17:27 10° WSW 05:23:18 60° SSE 05:29:08 10° E visible
27 Jan ? 19:55:35 10° WSW 20:00:44 29° SSW 20:04:26 16° SSE visible
28 Jan ? 03:22:44 23° SE 03:22:44 23° SE 03:25:58 10° ESE visible
28 Jan ? 05:04:47 12° WSW 05:10:24 69° SSE 05:16:17 10° ENE visible
28 Jan ? 19:42:54 10° WSW 19:47:51 26° SSW 19:52:48 10° SE visible
